Change the Weather History Date:

Tuesday, November 12, 2013

  Actual Average (KCFV) Record (KCFV)
Temperature  
Mean Temperature 30 °F -  
Max Temperature 35 °F 56 °F 82 °F (1999)
Min Temperature 24 °F 36 °F 21 °F (2014)
Degree Days  
Heating Degree Days 36    
Moisture  
Dew Point 18 °F    
Average Humidity 63    
Maximum Humidity 86    
Minimum Humidity 38    
Precipitation  
Precipitation 0.00 in - - ()
Sea Level Pressure  
Sea Level Pressure 30.75 in    
Wind  
Wind Speed 15 mph (NNE)    
Max Wind Speed 25 mph    
Max Gust Speed 31 mph    
Visibility 10 miles    
Events      
Averages and records for this station are not official NWS values.
T = Trace of Precipitation, MM = Missing Value Source: NWS Daily Summary

Daily Weather History Graph

Daily Weather History Graph

Search for Another Location

Airport or City:

Trip Planner

Search our weather history database for the weather conditions in past years. The results will help you decide how hot, cold, wet, or windy it might be!

Date:

Astronomy

Nov. 12, 2013 Rise Set
Actual Time 6:59 AM CST 5:15 PM CST
Civil Twilight 6:31 AM CST 5:42 PM CST
Nautical Twilight 6:00 AM CST 6:13 PM CST
Astronomical Twilight 5:29 AM CST 6:44 PM CST
Moon 2:24 PM CST (11/12) 1:56 AM CST (11/12)
Length of Visible Light 11h 11m
Length of Day
10h 15m
Waxing Gibbous, 76% of the Moon is Illuminated
Nov 12
Waxing Gibbous
Nov 17
Full
Nov 25
Last Quarter
Dec 2
New
Dec 9
First Quarter

Hourly Weather History & Observations

Time (CST) Temp. Windchill Dew Point Humidity Pressure Visibility Wind Dir Wind Speed Gust Speed Precip Events Conditions
12:15 AM 33.8 °F 21.6 °F 26.6 °F 75% 30.57 in 10.0 mi North 23.0 mph - N/A   Overcast
12:35 AM 33.8 °F 21.6 °F 23.0 °F 65% 30.58 in 10.0 mi North 23.0 mph 31.1 mph N/A   Overcast
12:55 AM 33.8 °F 21.0 °F 21.2 °F 60% 30.60 in 10.0 mi North 25.3 mph 29.9 mph N/A   Overcast
1:15 AM 32.0 °F 19.8 °F 19.4 °F 60% 30.60 in 10.0 mi NNE 20.7 mph 29.9 mph N/A   Overcast
1:35 AM 32.0 °F 20.1 °F 23.0 °F 69% 30.62 in 10.0 mi North 19.6 mph 27.6 mph N/A   Overcast
1:55 AM 32.0 °F 21.2 °F 21.2 °F 64% 30.63 in 10.0 mi North 16.1 mph 26.5 mph N/A   Mostly Cloudy
2:15 AM 30.2 °F 18.1 °F 21.2 °F 69% 30.64 in 10.0 mi North 18.4 mph 26.5 mph N/A   Clear
2:35 AM 30.2 °F 18.1 °F 21.2 °F 69% 30.66 in 10.0 mi North 18.4 mph 27.6 mph N/A   Clear
2:55 AM 30.2 °F 18.5 °F 19.4 °F 64% 30.67 in 10.0 mi North 17.3 mph 27.6 mph N/A   Clear
3:15 AM 30.2 °F 19.3 °F 21.2 °F 69% 30.68 in 10.0 mi North 15.0 mph 24.2 mph N/A   Clear
3:35 AM 30.2 °F 18.9 °F 19.4 °F 64% 30.68 in 10.0 mi North 16.1 mph 20.7 mph N/A   Clear
3:55 AM 28.4 °F 18.0 °F 19.4 °F 69% 30.69 in 10.0 mi North 12.7 mph - N/A   Clear
4:15 AM 28.4 °F 16.2 °F 19.4 °F 69% 30.70 in 10.0 mi North 17.3 mph - N/A   Clear
4:35 AM 30.2 °F 19.8 °F 19.4 °F 64% 30.71 in 10.0 mi North 13.8 mph 23.0 mph N/A   Clear
4:55 AM 30.2 °F 18.1 °F 19.4 °F 64% 30.72 in 10.0 mi North 18.4 mph 24.2 mph N/A   Scattered Clouds
5:15 AM 28.4 °F 15.8 °F 19.4 °F 69% 30.73 in 10.0 mi North 18.4 mph 23.0 mph N/A   Clear
5:35 AM 28.4 °F 15.4 °F 19.4 °F 69% 30.74 in 10.0 mi North 19.6 mph - N/A   Clear
5:55 AM 28.4 °F 14.7 °F 17.6 °F 64% 30.75 in 10.0 mi North 21.9 mph 29.9 mph N/A   Clear
6:15 AM 26.6 °F 12.7 °F 17.6 °F 69% 30.76 in 10.0 mi NNE 20.7 mph 28.8 mph N/A   Clear
6:35 AM 26.6 °F 13.4 °F 17.6 °F 69% 30.76 in 10.0 mi North 18.4 mph 21.9 mph N/A   Clear
6:55 AM 24.8 °F 12.4 °F 19.4 °F 80% 30.77 in 10.0 mi North 15.0 mph - N/A   Clear
7:15 AM 24.8 °F 10.7 °F 17.6 °F 74% 30.78 in 10.0 mi NNE 19.6 mph - N/A   Clear
7:35 AM 24.8 °F 10.7 °F 19.4 °F 80% 30.80 in 10.0 mi North 19.6 mph 23.0 mph N/A   Clear
7:55 AM 24.8 °F 11.5 °F 17.6 °F 74% 30.81 in 10.0 mi North 17.3 mph 23.0 mph N/A   Clear
8:15 AM 24.8 °F 10.7 °F 17.6 °F 74% 30.82 in 10.0 mi North 19.6 mph - N/A   Clear
8:35 AM 26.6 °F 14.3 °F 17.6 °F 69% 30.82 in 10.0 mi NNE 16.1 mph - N/A   Clear
8:55 AM 26.6 °F 13.4 °F 17.6 °F 69% 30.84 in 10.0 mi North 18.4 mph - N/A   Clear
9:15 AM 26.6 °F 14.7 °F 17.6 °F 69% 30.84 in 10.0 mi NNE 15.0 mph - N/A   Clear
9:35 AM 28.4 °F 17.0 °F 17.6 °F 64% 30.84 in 10.0 mi North 15.0 mph - N/A   Clear
9:55 AM 28.4 °F 17.0 °F 17.6 °F 64% 30.84 in 10.0 mi North 15.0 mph - N/A   Clear
10:15 AM 30.2 °F 18.9 °F 17.6 °F 60% 30.85 in 10.0 mi North 16.1 mph 23.0 mph N/A   Clear
10:35 AM 30.2 °F 19.8 °F 17.6 °F 60% 30.86 in 10.0 mi North 13.8 mph 19.6 mph N/A   Clear
10:55 AM 30.2 °F 19.8 °F 17.6 °F 60% 30.86 in 10.0 mi North 13.8 mph 21.9 mph N/A   Clear
11:15 AM 32.0 °F 21.6 °F 15.8 °F 51% 30.85 in 10.0 mi NNE 15.0 mph 21.9 mph N/A   Clear
11:35 AM 32.0 °F 23.0 °F 15.8 °F 51% 30.85 in 10.0 mi North 11.5 mph 20.7 mph N/A   Clear
11:55 AM 32.0 °F 22.1 °F 15.8 °F 51% 30.83 in 10.0 mi North 13.8 mph - N/A   Clear
12:15 PM 32.0 °F 22.1 °F 15.8 °F 51% 30.82 in 10.0 mi North 13.8 mph 19.6 mph N/A   Clear
12:35 PM 32.0 °F 21.6 °F 15.8 °F 51% 30.81 in 10.0 mi North 15.0 mph 21.9 mph N/A   Clear
12:55 PM 33.8 °F 24.3 °F 15.8 °F 48% 30.80 in 10.0 mi North 13.8 mph - N/A   Clear
1:15 PM 33.8 °F 26.4 °F 14.0 °F 44% 30.79 in 10.0 mi NNE 9.2 mph - N/A   Clear
1:35 PM 33.8 °F 26.4 °F 14.0 °F 44% 30.78 in 10.0 mi North 9.2 mph - N/A   Clear
1:55 PM 33.8 °F 23.9 °F 12.2 °F 41% 30.77 in 10.0 mi North 15.0 mph 18.4 mph N/A   Clear
2:15 PM 35.6 °F 28.0 °F 14.0 °F 41% 30.77 in 10.0 mi NNE 10.4 mph - N/A   Clear
2:35 PM 35.6 °F 27.5 °F 12.2 °F 38% 30.76 in 10.0 mi NNE 11.5 mph - N/A   Clear
2:55 PM 35.6 °F 27.1 °F 14.0 °F 41% 30.75 in 10.0 mi North 12.7 mph - N/A   Clear
3:15 PM 35.6 °F 29.2 °F 14.0 °F 41% 30.75 in 10.0 mi NNE 8.1 mph - N/A   Clear
3:35 PM 35.6 °F 28.6 °F 12.2 °F 38% 30.74 in 10.0 mi North 9.2 mph - N/A   Clear
3:55 PM 35.6 °F 28.6 °F 14.0 °F 41% 30.74 in 10.0 mi North 9.2 mph - N/A   Clear
4:15 PM 35.6 °F 28.0 °F 14.0 °F 41% 30.75 in 10.0 mi North 10.4 mph - N/A   Clear
4:35 PM 33.8 °F 27.7 °F 14.0 °F 44% 30.75 in 10.0 mi NNE 6.9 mph - N/A   Clear
4:55 PM 33.8 °F 28.6 °F 15.8 °F 48% 30.75 in 10.0 mi NNE 5.8 mph - N/A   Clear
5:15 PM 32.0 °F 27.5 °F 17.6 °F 55% 30.75 in 10.0 mi North 4.6 mph - N/A   Clear
5:35 PM 32.0 °F 27.5 °F 17.6 °F 55% 30.74 in 10.0 mi North 4.6 mph - N/A   Clear
5:55 PM 32.0 °F 27.5 °F 19.4 °F 60% 30.74 in 10.0 mi North 4.6 mph - N/A   Clear
6:15 PM 32.0 °F 26.4 °F 19.4 °F 60% 30.74 in 10.0 mi North 5.8 mph - N/A   Clear
6:35 PM 30.2 °F 24.3 °F 17.6 °F 60% 30.73 in 10.0 mi North 5.8 mph - N/A   Clear
6:55 PM 30.2 °F 24.3 °F 17.6 °F 60% 30.73 in 10.0 mi North 5.8 mph - N/A   Clear
7:15 PM 30.2 °F 26.7 °F 17.6 °F 60% 30.73 in 10.0 mi NNE 3.5 mph - N/A   Clear
7:35 PM 32.0 °F 27.5 °F 17.6 °F 55% 30.73 in 10.0 mi NE 4.6 mph - N/A   Clear
7:55 PM 30.2 °F 26.7 °F 19.4 °F 64% 30.72 in 10.0 mi NE 3.5 mph - N/A   Clear
8:15 PM 30.2 °F 26.7 °F 17.6 °F 60% 30.72 in 10.0 mi NE 3.5 mph - N/A   Clear
8:35 PM 30.2 °F - 19.4 °F 64% 30.72 in 10.0 mi Calm Calm - N/A   Clear
8:55 PM 28.4 °F - 23.0 °F 80% 30.73 in 10.0 mi Calm Calm - N/A   Clear
9:15 PM 28.4 °F - 21.2 °F 74% 30.74 in 10.0 mi Calm Calm - N/A   Clear
9:35 PM 28.4 °F - 23.0 °F 80% 30.74 in 10.0 mi Calm Calm - N/A   Clear
9:55 PM 28.4 °F - 23.0 °F 80% 30.74 in 10.0 mi Calm Calm - N/A   Clear
10:15 PM 26.6 °F - 23.0 °F 86% 30.73 in 10.0 mi Calm Calm - N/A   Clear
10:35 PM 26.6 °F - 23.0 °F 86% 30.73 in 10.0 mi Calm Calm - N/A   Clear
10:55 PM 26.6 °F - 23.0 °F 86% 30.73 in 10.0 mi Calm Calm - N/A   Clear
11:15 PM 26.6 °F - 23.0 °F 86% 30.73 in 10.0 mi Calm Calm - N/A   Clear
11:35 PM 26.6 °F - 23.0 °F 86% 30.73 in 10.0 mi Calm Calm - N/A   Clear
11:55 PM 26.6 °F - 23.0 °F 86% 30.73 in 10.0 mi Calm Calm - N/A   Clear